Regional Weather Roundup
Issued by NWS

Home | Current Version | Previous Version | Text Only | Print | Product List | Glossary Off
Versions: 1 2 3 4 5 6 7 8 9 10 11 12 13 14 15 16 17 18 19 20 21 22 23 24 25 26 27 28 29 30 31 32 33 34 35 36 37 38 39 40 41 42 43 44 45 46 47 48 49 50

000
ASUS43 KLMK 081310
RWRKY
KENTUCKY REGIONAL WEATHER ROUNDUP
NATIONAL WEATHER SERVICE LOUISVILLE KY
800 AM EST MON FEB 08 2016

NOTE "FAIR" INDICATES FEW OR NO CLOUDS BELOW 12,000 FEET
WITH NO SIGNIFICANT WEATHER AND/OR OBSTRUCTIONS TO VISIBILITY.

KYZ001>023-026-027-061>063-070>075-081400-
WESTERN AND SOUTH CENTRAL KENTUCKY

CITY           SKY/WX    TMP DP  RH WIND       PRES   REMARKS
PADUCAH        CLOUDY    38  26  62 W7        29.81S WCI  33
HENDERSON      PTCLDY    34  30  86 W7        29.77R WCI  28
OWENSBORO      CLOUDY    34  34 100 W6        29.76F WCI  29
HOPKINSVILLE   CLOUDY    38  26  61 W10       29.78R WCI  31
BOWLING GREEN  CLOUDY    39  32  76 W8        29.75S WCI  33
GLASGOW        CLOUDY    35  35 100 CALM      29.73S
$$

KYZ024-025-028>034-038-045-046-053-081400-
NORTH CENTRAL KENTUCKY

CITY           SKY/WX    TMP DP  RH WIND       PRES   REMARKS
LOUISVILLE/SDF MOCLDY    36  33  89 CALM      29.71F
LOUISVILLE/LOU CLOUDY    35  34  96 S3        29.71F
FORT KNOX      LGT SNOW  32  32 100 W12G22    29.70R FOG     WCI  23
$$

KYZ035>037-039>044-047>052-055>060-089>105-081400-
NORTHEAST KENTUCKY

CITY           SKY/WX    TMP DP  RH WIND       PRES   REMARKS
LEXINGTON      PTCLDY    32  31  96 SW7       29.69F WCI  26
COVINGTON      LGT RAIN  36  34  93 W9        29.66F FOG     WCI  29
FRANKFORT      CLOUDY   N/A N/A N/A CALM      29.69F
$$

KYZ054-064>069-076>088-106>120-081400-
SOUTHEAST KENTUCKY

CITY           SKY/WX    TMP DP  RH WIND       PRES   REMARKS
JACKSON        LGT RAIN  34  32  92 VRB5      29.70F WCI  30
LONDON         CLOUDY    36  33  89 SW3       29.72F
SOMERSET       CLEAR     32  32 100 CALM      29.74F FOG
MIDDLESBORO    CLOUDY    38  32  79 CALM      29.73F
MONTICELLO     MOSUNNY   30  30 100 NE6       29.76S FOG     WCI  24
$$




USA.gov is the U.S. government's official web portal to all federal, state and local government web resources and services.